Location: Arroyo de Valdeoliva
(40.1604°N, 4.9878°W)
Time: 15:00:14
(UTC+00:00)

Cosmos 2266 Rocket - Pass Details

Date: 11 December 2025
Orbit: 933 x 1007 km, 82.9° (Epoch: 16 January)

Event Time Altitude Azimuth Distance (km) Brightness Sun altitude
Rises 17:40:38 0° 354° (N) 3,646 6.8 -8.8°
Reaches altitude 10° 17:43:10 10° 355° (N) 2,686 6.1 -9.2°
Maximum altitude 17:49:18 78° 82° (E) 965 3.9 -10.3°
Drops below altitude 10° 17:55:19 10° 169° (S) 2,635 6.4 -11.4°
Sets 17:57:46 0° 171° (S) 3,572 7.1 -11.8°
